| time (UTC) | temp F | wind direction | speed MPH | gust MPH | rain 1hr in | rain 24hr in | rain mn in | humidity % | barometer mb |
| 20260505192012 | 48 | 269 | 0.0 | 2.0 | 0.00 | 0.14 | 0.03 | 78 | 1008.1 |
| 20260505191529 | 48 | 0 | 0.0 | 2.0 | 0.00 | 0.14 | 0.03 | 79 | 1008.1 |
| 20260505191012 | 48 | 0 | 1.0 | 2.0 | 0.01 | 0.14 | 0.03 | 78 | 1008.0 |
| 20260505190511 | 48 | 0 | 0.0 | 2.0 | 0.02 | 0.14 | 0.03 | 77 | 1007.7 |
| 20260505190031 | 48 | 0 | 0.0 | 2.0 | 0.02 | 0.14 | 0.03 | 76 | 1007.7 |
| 20260505185513 | 48 | 0 | 0.0 | 2.0 | 0.02 | 0.14 | 0.03 | 80 | 1007.9 |
| 20260505185011 | 48 | 269 | 0.0 | 3.0 | 0.02 | 0.14 | 0.03 | 79 | 1007.8 |
| 20260505184541 | 47 | 269 | 1.0 | 3.0 | 0.03 | 0.14 | 0.03 | 76 | 1007.7 |
| 20260505184014 | 47 | 0 | 0.0 | 2.0 | 0.03 | 0.14 | 0.03 | 77 | 1007.6 |
| 20260505183524 | 47 | 295 | 0.0 | 2.0 | 0.03 | 0.14 | 0.03 | 80 | 1007.5 |
| 20260505183039 | 47 | 0 | 0.0 | 1.0 | 0.03 | 0.14 | 0.03 | 78 | 1007.7 |
| 20260505182512 | 47 | 0 | 0.0 | 1.0 | 0.03 | 0.14 | 0.03 | 79 | 1007.6 |
| 20260505182013 | 48 | 0 | 0.0 | 1.0 | 0.03 | 0.14 | 0.03 | 76 | 1007.7 |
| 20260505181531 | 48 | 0 | 0.0 | 1.0 | 0.03 | 0.13 | 0.03 | 76 | 1007.4 |
| 20260505181010 | 48 | 0 | 0.0 | 1.0 | 0.02 | 0.12 | 0.02 | 73 | 1007.5 |
| 20260505180509 | 48 | 272 | 0.0 | 2.0 | 0.01 | 0.11 | 0.01 | 72 | 1007.5 |
| 20260505180031 | 48 | 0 | 0.0 | 3.0 | 0.01 | 0.11 | 0.01 | 71 | 1007.4 |
| 20260505175510 | 49 | 0 | 0.0 | 3.0 | 0.01 | 0.11 | 0.01 | 71 | 1007.4 |
| 20260505175013 | 49 | 0 | 0.0 | 1.0 | 0.01 | 0.11 | 0.01 | 72 | 1007.3 |
| 20260505174530 | 49 | 274 | 0.0 | 3.0 | 0.00 | 0.11 | 0.00 | 72 | 1007.3 |
| 20260505174011 | 50 | 0 | 0.0 | 3.0 | 0.00 | 0.10 | 0.00 | 66 | 1007.3 |
| 20260505173511 | 51 | 272 | 1.0 | 3.0 | 0.00 | 0.10 | 0.00 | 60 | 1007.3 |
| 20260505173028 | 51 | 291 | 0.0 | 4.0 | 0.00 | 0.10 | 0.00 | 59 | 1007.4 |
| 20260505172512 | 51 | 272 | 2.0 | 4.0 | 0.00 | 0.10 | 0.00 | 58 | 1007.3 |
| 20260505172011 | 51 | 275 | 2.0 | 4.0 | 0.00 | 0.10 | 0.00 | 60 | 1007.2 |
| 20260505171529 | 52 | 334 | 1.0 | 7.0 | 0.00 | 0.10 | 0.00 | 56 | 1006.9 |
| 20260505171013 | 52 | 282 | 2.0 | 7.0 | 0.00 | 0.10 | 0.00 | 58 | 1006.9 |
| 20260505170509 | 52 | 321 | 2.0 | 6.0 | 0.00 | 0.10 | 0.00 | 60 | 1006.9 |
| 20260505170035 | 52 | 299 | 2.0 | 6.0 | 0.00 | 0.10 | 0.00 | 59 | 1006.8 |
| 20260505165510 | 52 | 295 | 2.0 | 6.0 | 0.00 | 0.10 | 0.00 | 62 | 1006.8 |
| 20260505165012 | 52 | 272 | 2.0 | 6.0 | 0.00 | 0.10 | 0.00 | 59 | 1006.8 |
| 20260505164533 | 52 | 312 | 1.0 | 7.0 | 0.00 | 0.10 | 0.00 | 59 | 1006.9 |
| 20260505164010 | 52 | 276 | 3.0 | 7.0 | 0.00 | 0.10 | 0.00 | 59 | 1007.0 |
| 20260505163512 | 52 | 337 | 2.0 | 7.0 | 0.00 | 0.10 | 0.00 | 58 | 1006.9 |
| 20260505163033 | 52 | 268 | 3.0 | 7.0 | 0.00 | 0.10 | 0.00 | 59 | 1006.8 |
| 20260505162515 | 53 | 353 | 2.0 | 7.0 | 0.00 | 0.10 | 0.00 | 60 | 1006.7 |
| 20260505162012 | 52 | 271 | 2.0 | 6.0 | 0.00 | 0.10 | 0.00 | 60 | 1006.6 |
| 20260505161530 | 52 | 283 | 2.0 | 5.0 | 0.00 | 0.10 | 0.00 | 58 | 1006.6 |
| 20260505161012 | 52 | 333 | 2.0 | 5.0 | 0.00 | 0.10 | 0.00 | 59 | 1006.5 |
| 20260505160513 | 51 | 272 | 1.0 | 4.0 | 0.00 | 0.10 | 0.00 | 61 | 1006.4 |
| 20260505153031 | 51 | 325 | 2.0 | 6.0 | 0.00 | 0.10 | 0.00 | 63 | 1006.6 |
| 20260505152512 | 51 | 314 | 1.0 | 8.0 | 0.00 | 0.10 | 0.00 | 64 | 1007.0 |
| 20260505152012 | 51 | 286 | 2.0 | 8.0 | 0.00 | 0.10 | 0.00 | 63 | 1006.7 |
| 20260505151538 | 52 | 320 | 2.0 | 8.0 | 0.00 | 0.10 | 0.00 | 64 | 1006.7 |
| 20260505151013 | 52 | 280 | 3.0 | 8.0 | 0.00 | 0.10 | 0.00 | 65 | 1006.8 |
| 20260505150515 | 53 | 275 | 3.0 | 7.0 | 0.00 | 0.10 | 0.00 | 67 | 1006.3 |
| 20260505140516 | 53 | 330 | 2.0 | 9.0 | 0.00 | 0.10 | 0.00 | 61 | 1005.0 |
| 20260505125014 | 49 | 360 | 1.0 | 5.0 | 0.00 | 0.10 | 0.00 | 75 | 1003.6 |
| 20260505124536 | 49 | 1 | 1.0 | 5.0 | 0.00 | 0.10 | 0.00 | 76 | 1003.6 |
| 20260505124016 | 48 | 280 | 1.0 | 4.0 | 0.00 | 0.10 | 0.00 | 78 | 1003.9 |
| 20260505123518 | 48 | 289 | 1.0 | 7.0 | 0.00 | 0.10 | 0.00 | 78 | 1003.9 |
| 20260505123034 | 48 | 282 | 2.0 | 7.0 | 0.00 | 0.10 | 0.00 | 79 | 1004.0 |
| 20260505122513 | 48 | 260 | 2.0 | 7.0 | 0.00 | 0.10 | 0.00 | 80 | 1004.1 |
| 20260505122010 | 47 | 306 | 1.0 | 3.0 | 0.00 | 0.10 | 0.00 | 81 | 1003.9 |
| 20260505121537 | 47 | 303 | 1.0 | 4.0 | 0.00 | 0.10 | 0.00 | 80 | 1003.6 |
| 20260505121012 | 47 | 337 | 1.0 | 7.0 | 0.00 | 0.10 | 0.00 | 81 | 1003.4 |
| 20260505120512 | 46 | 273 | 2.0 | 7.0 | 0.00 | 0.10 | 0.00 | 81 | 1003.2 |
| 20260505120032 | 46 | 0 | 0.0 | 4.0 | 0.00 | 0.10 | 0.00 | 82 | 1003.1 |
| 20260505115512 | 46 | 270 | 1.0 | 6.0 | 0.00 | 0.10 | 0.00 | 82 | 1003.3 |
| 20260505115011 | 46 | 281 | 1.0 | 7.0 | 0.00 | 0.10 | 0.00 | 82 | 1003.3 |
| 20260505114529 | 46 | 272 | 2.0 | 7.0 | 0.00 | 0.10 | 0.00 | 83 | 1003.1 |
| 20260505114011 | 46 | 287 | 2.0 | 7.0 | 0.00 | 0.10 | 0.00 | 83 | 1003.1 |
| 20260505113510 | 46 | 275 | 1.0 | 7.0 | 0.00 | 0.10 | 0.00 | 84 | 1002.7 |
| 20260505113038 | 46 | 299 | 2.0 | 4.0 | 0.00 | 0.10 | 0.00 | 85 | 1002.6 |
| 20260505112513 | 46 | 265 | 1.0 | 4.0 | 0.00 | 0.10 | 0.00 | 84 | 1002.4 |
| 20260505112014 | 46 | 272 | 1.0 | 4.0 | 0.00 | 0.10 | 0.00 | 84 | 1001.8 |
| 20260505111541 | 46 | 280 | 2.0 | 3.0 | 0.00 | 0.10 | 0.00 | 83 | 1001.9 |
| 20260505111011 | 47 | 276 | 1.0 | 3.0 | 0.00 | 0.10 | 0.00 | 82 | 1001.7 |
| 20260505110514 | 47 | 274 | 0.0 | 4.0 | 0.00 | 0.10 | 0.00 | 82 | 1001.5 |
| 20260505102011 | 56 | 266 | 3.0 | 11.0 | 0.00 | 0.10 | 0.00 | 81 | 1000.8 |
| 20260505101534 | 57 | 216 | 1.0 | 6.0 | 0.00 | 0.10 | 0.00 | 80 | 1000.7 |
| 20260505101009 | 57 | 287 | 2.0 | 5.0 | 0.00 | 0.10 | 0.00 | 80 | 1000.8 |
| 20260505100510 | 57 | 263 | 2.0 | 9.0 | 0.00 | 0.10 | 0.00 | 80 | 1000.7 |
| 20260505100028 | 57 | 224 | 2.0 | 9.0 | 0.00 | 0.10 | 0.00 | 80 | 1000.5 |
| 20260505095512 | 57 | 249 | 1.0 | 5.0 | 0.00 | 0.10 | 0.00 | 79 | 1000.4 |
| 20260505095012 | 57 | 216 | 1.0 | 6.0 | 0.00 | 0.10 | 0.00 | 79 | 1000.4 |
| 20260505094527 | 57 | 210 | 2.0 | 8.0 | 0.00 | 0.10 | 0.00 | 79 | 1000.4 |
| 20260505094012 | 57 | 241 | 2.0 | 8.0 | 0.00 | 0.10 | 0.00 | 79 | 1000.4 |
| 20260505093512 | 57 | 216 | 3.0 | 8.0 | 0.00 | 0.10 | 0.00 | 79 | 1000.3 |
| 20260505093034 | 58 | 239 | 2.0 | 7.0 | 0.00 | 0.10 | 0.00 | 79 | 1000.2 |
| 20260505092516 | 58 | 204 | 2.0 | 7.0 | 0.00 | 0.10 | 0.00 | 78 | 1000.2 |
| 20260505092012 | 58 | 0 | 1.0 | 6.0 | 0.00 | 0.10 | 0.00 | 78 | 1000.1 |
| 20260505091530 | 58 | 214 | 2.0 | 6.0 | 0.00 | 0.10 | 0.00 | 78 | 999.9 |
| 20260505091010 | 58 | 207 | 1.0 | 5.0 | 0.00 | 0.10 | 0.00 | 78 | 999.8 |
| 20260505090511 | 58 | 192 | 1.0 | 10.0 | 0.00 | 0.10 | 0.00 | 78 | 999.8 |
| 20260505090031 | 58 | 261 | 2.0 | 10.0 | 0.00 | 0.10 | 0.00 | 77 | 999.7 |
| 20260505085512 | 58 | 0 | 1.0 | 8.0 | 0.00 | 0.10 | 0.00 | 77 | 999.8 |
| 20260505085012 | 58 | 180 | 2.0 | 13.0 | 0.00 | 0.10 | 0.00 | 77 | 999.8 |
| 20260505084532 | 58 | 256 | 3.0 | 13.0 | 0.00 | 0.10 | 0.00 | 77 | 999.9 |
| 20260505084011 | 59 | 232 | 2.0 | 6.0 | 0.00 | 0.10 | 0.00 | 76 | 999.7 |
| 20260505083512 | 59 | 267 | 1.0 | 6.0 | 0.00 | 0.10 | 0.00 | 76 | 999.4 |
| 20260505083033 | 59 | 222 | 1.0 | 9.0 | 0.00 | 0.10 | 0.00 | 75 | 999.5 |
| 20260505082512 | 59 | 140 | 2.0 | 11.0 | 0.00 | 0.10 | 0.00 | 75 | 999.3 |
| 20260505082010 | 59 | 214 | 2.0 | 11.0 | 0.00 | 0.10 | 0.00 | 75 | 999.2 |
| 20260505081530 | 59 | 216 | 3.0 | 11.0 | 0.00 | 0.10 | 0.00 | 75 | 999.2 |
| 20260505081013 | 59 | 175 | 2.0 | 10.0 | 0.00 | 0.10 | 0.00 | 74 | 999.1 |
| 20260505080514 | 59 | 163 | 2.0 | 6.0 | 0.00 | 0.10 | 0.00 | 75 | 999.2 |
| 20260505080031 | 59 | 237 | 1.0 | 8.0 | 0.00 | 0.10 | 0.00 | 75 | 999.1 |
| 20260505075511 | 59 | 213 | 3.0 | 8.0 | 0.00 | 0.10 | 0.00 | 74 | 999.2 |
| 20260505075012 | 60 | 198 | 2.0 | 8.0 | 0.00 | 0.10 | 0.00 | 74 | 999.4 |
| 20260505074531 | 60 | 185 | 1.0 | 8.0 | 0.00 | 0.10 | 0.00 | 74 | 999.3 |
| 20260505074012 | 60 | 250 | 0.0 | 8.0 | 0.00 | 0.10 | 0.00 | 73 | 999.3 |
| 20260505073509 | 60 | 223 | 1.0 | 8.0 | 0.00 | 0.10 | 0.00 | 73 | 999.2 |
| 20260505073031 | 60 | 206 | 2.0 | 8.0 | 0.00 | 0.10 | 0.00 | 72 | 999.3 |
| 20260505072512 | 61 | 275 | 2.0 | 9.0 | 0.00 | 0.10 | 0.00 | 72 | 999.3 |
| 20260505072013 | 61 | 209 | 3.0 | 9.0 | 0.00 | 0.10 | 0.00 | 72 | 999.2 |
| 20260505071532 | 61 | 235 | 3.0 | 8.0 | 0.00 | 0.10 | 0.00 | 72 | 999.1 |
| 20260505071013 | 61 | 172 | 2.0 | 6.0 | 0.00 | 0.10 | 0.00 | 73 | 999.1 |
| 20260505070511 | 61 | 253 | 2.0 | 8.0 | 0.00 | 0.10 | 0.00 | 73 | 999.0 |
| 20260505070030 | 61 | 204 | 2.0 | 9.0 | 0.00 | 0.10 | 0.00 | 72 | 998.9 |
| 20260505065513 | 62 | 212 | 3.0 | 9.0 | 0.00 | 0.10 | 0.00 | 71 | 999.1 |
| 20260505065013 | 62 | 202 | 2.0 | 10.0 | 0.00 | 0.10 | 0.00 | 71 | 999.1 |
| 20260505064533 | 62 | 185 | 3.0 | 10.0 | 0.00 | 0.10 | 0.00 | 71 | 999.3 |
| 20260505064010 | 62 | 175 | 2.0 | 10.0 | 0.00 | 0.10 | 0.00 | 71 | 999.2 |
| 20260505063512 | 62 | 196 | 3.0 | 10.0 | 0.00 | 0.10 | 0.00 | 71 | 999.4 |
| 20260505063031 | 62 | 225 | 2.0 | 10.0 | 0.00 | 0.10 | 0.00 | 70 | 999.5 |
| 20260505062512 | 62 | 185 | 3.0 | 10.0 | 0.00 | 0.10 | 0.00 | 70 | 999.6 |
| 20260505062012 | 62 | 180 | 3.0 | 10.0 | 0.00 | 0.10 | 0.00 | 70 | 999.7 |
| 20260505061547 | 62 | 200 | 3.0 | 9.0 | 0.00 | 0.10 | 0.00 | 70 | 999.7 |
| 20260505061013 | 62 | 193 | 2.0 | 11.0 | 0.00 | 0.10 | 0.00 | 70 | 999.8 |
| 20260505060511 | 62 | 193 | 4.0 | 11.0 | 0.00 | 0.10 | 0.00 | 70 | 1000.0 |
| 20260505060028 | 62 | 185 | 3.0 | 13.0 | 0.00 | 0.10 | 0.00 | 70 | 1000.1 |
| 20260505055512 | 62 | 0 | 4.0 | 13.0 | 0.00 | 0.10 | 0.00 | 70 | 1000.0 |
| 20260505055014 | 61 | 106 | 4.0 | 13.0 | 0.00 | 0.10 | 0.00 | 71 | 1000.0 |
| 20260505054542 | 61 | 168 | 4.0 | 10.0 | 0.00 | 0.10 | 0.00 | 71 | 1000.2 |
| 20260505054010 | 61 | 215 | 3.0 | 9.0 | 0.00 | 0.10 | 0.00 | 72 | 1000.1 |
| 20260505053512 | 61 | 208 | 2.0 | 11.0 | 0.00 | 0.10 | 0.00 | 71 | 1000.1 |
| 20260505053031 | 61 | 175 | 4.0 | 11.0 | 0.00 | 0.10 | 0.00 | 71 | 1000.2 |
| 20260505052512 | 61 | 189 | 1.0 | 10.0 | 0.00 | 0.10 | 0.00 | 71 | 1000.3 |
| 20260505052011 | 61 | 164 | 3.0 | 10.0 | 0.00 | 0.10 | 0.00 | 72 | 1000.3 |
| 20260505051531 | 61 | 234 | 5.0 | 10.0 | 0.00 | 0.10 | 0.00 | 72 | 1000.2 |
| 20260505051014 | 61 | 152 | 3.0 | 8.0 | 0.00 | 0.10 | 0.00 | 72 | 1000.2 |
| 20260505050515 | 61 | 213 | 4.0 | 10.0 | 0.00 | 0.10 | 0.00 | 72 | 1000.2 |
| 20260505041528 | 61 | 149 | 4.0 | 13.0 | 0.00 | 0.10 | 0.00 | 72 | 1000.0 |
| 20260505041011 | 61 | 133 | 2.0 | 13.0 | 0.00 | 0.10 | 0.00 | 72 | 1000.1 |
| 20260505040510 | 61 | 230 | 4.0 | 9.0 | 0.00 | 0.10 | 0.00 | 72 | 1000.2 |
| 20260505040040 | 61 | 205 | 2.0 | 8.0 | 0.00 | 0.10 | 0.00 | 72 | 1000.2 |
| 20260505035514 | 61 | 199 | 3.0 | 8.0 | 0.00 | 0.10 | 0.10 | 72 | 1000.2 |
| 20260505035017 | 61 | 210 | 2.0 | 11.0 | 0.00 | 0.10 | 0.10 | 72 | 1000.3 |
| 20260505034537 | 61 | 175 | 3.0 | 11.0 | 0.00 | 0.10 | 0.10 | 72 | 1000.3 |
| 20260505034011 | 61 | 197 | 3.0 | 10.0 | 0.00 | 0.10 | 0.10 | 71 | 1000.3 |
| 20260505033511 | 61 | 180 | 4.0 | 10.0 | 0.00 | 0.10 | 0.10 | 72 | 1000.4 |
| 20260505033030 | 60 | 190 | 3.0 | 10.0 | 0.00 | 0.10 | 0.10 | 72 | 1000.4 |
| 20260505032513 | 61 | 155 | 3.0 | 11.0 | 0.00 | 0.10 | 0.10 | 72 | 1000.6 |
| 20260505032011 | 61 | 204 | 2.0 | 11.0 | 0.00 | 0.10 | 0.10 | 72 | 1000.7 |
| 20260505031528 | 61 | 158 | 3.0 | 10.0 | 0.00 | 0.10 | 0.10 | 71 | 1000.7 |
| 20260505031011 | 61 | 230 | 4.0 | 10.0 | 0.00 | 0.10 | 0.10 | 71 | 1000.7 |
| 20260505030511 | 61 | 219 | 3.0 | 11.0 | 0.00 | 0.10 | 0.10 | 72 | 1000.7 |
| 20260505030030 | 61 | 185 | 4.0 | 16.0 | 0.00 | 0.10 | 0.10 | 71 | 1000.8 |
| 20260505025516 | 61 | 196 | 6.0 | 16.0 | 0.00 | 0.10 | 0.10 | 72 | 1000.9 |
| 20260505025011 | 61 | 185 | 2.0 | 13.0 | 0.01 | 0.10 | 0.10 | 74 | 1000.8 |
| 20260505024531 | 60 | 207 | 4.0 | 11.0 | 0.03 | 0.10 | 0.10 | 74 | 1000.8 |
| 20260505024011 | 60 | 135 | 2.0 | 12.0 | 0.07 | 0.10 | 0.10 | 75 | 1000.8 |
| 20260505023511 | 60 | 185 | 4.0 | 12.0 | 0.10 | 0.10 | 0.10 | 75 | 1000.8 |
| 20260505023031 | 60 | 203 | 4.0 | 9.0 | 0.10 | 0.10 | 0.10 | 77 | 1000.8 |
| 20260505022512 | 60 | 222 | 2.0 | 12.0 | 0.10 | 0.10 | 0.10 | 78 | 1000.9 |
| 20260505022010 | 59 | 220 | 3.0 | 12.0 | 0.10 | 0.10 | 0.10 | 78 | 1001.1 |
| 20260505021533 | 59 | 191 | 2.0 | 9.0 | 0.10 | 0.10 | 0.10 | 80 | 1001.1 |
| 20260505021014 | 59 | 202 | 3.0 | 9.0 | 0.10 | 0.10 | 0.10 | 80 | 1001.2 |
| 20260505020511 | 60 | 242 | 1.0 | 13.0 | 0.10 | 0.10 | 0.10 | 81 | 1001.3 |
| 20260505020037 | 60 | 243 | 4.0 | 13.0 | 0.10 | 0.10 | 0.10 | 80 | 1001.2 |
| 20260505015510 | 60 | 175 | 1.0 | 14.0 | 0.09 | 0.09 | 0.09 | 81 | 1001.2 |
| 20260505015016 | 61 | 172 | 4.0 | 20.0 | 0.07 | 0.07 | 0.07 | 78 | 1001.1 |
| 20260505014528 | 63 | 293 | 7.0 | 20.0 | 0.06 | 0.06 | 0.06 | 74 | 1001.1 |
| 20260505014009 | 65 | 196 | 6.0 | 13.0 | 0.01 | 0.01 | 0.01 | 67 | 1000.7 |
| 20260505013512 | 65 | 175 | 3.0 | 10.0 | 0.00 | 0.00 | 0.00 | 64 | 1000.9 |
| 20260505013031 | 65 | 175 | 3.0 | 11.0 | 0.00 | 0.00 | 0.00 | 63 | 1000.3 |
| 20260505012512 | 65 | 172 | 4.0 | 11.0 | 0.00 | 0.00 | 0.00 | 62 | 1000.0 |
| 20260505012011 | 65 | 171 | 3.0 | 10.0 | 0.00 | 0.00 | 0.00 | 62 | 1000.0 |
| 20260505011530 | 66 | 196 | 3.0 | 12.0 | 0.00 | 0.00 | 0.00 | 61 | 999.9 |
| 20260505011013 | 66 | 185 | 3.0 | 12.0 | 0.00 | 0.00 | 0.00 | 60 | 999.9 |
| 20260505010510 | 66 | 192 | 3.0 | 12.0 | 0.00 | 0.00 | 0.00 | 59 | 999.7 |
| 20260505010031 | 66 | 185 | 2.0 | 10.0 | 0.00 | 0.00 | 0.00 | 59 | 999.8 |
| 20260505005511 | 67 | 143 | 4.0 | 10.0 | 0.00 | 0.00 | 0.00 | 58 | 999.7 |
| 20260505005011 | 67 | 199 | 3.0 | 9.0 | 0.00 | 0.00 | 0.00 | 57 | 999.8 |
| 20260505004528 | 67 | 154 | 2.0 | 9.0 | 0.00 | 0.00 | 0.00 | 57 | 999.8 |
| 20260505004011 | 67 | 175 | 3.0 | 9.0 | 0.00 | 0.00 | 0.00 | 56 | 999.8 |
| 20260505003514 | 68 | 185 | 3.0 | 9.0 | 0.00 | 0.00 | 0.00 | 56 | 999.8 |
| 20260505003027 | 68 | 202 | 4.0 | 9.0 | 0.00 | 0.00 | 0.00 | 55 | 999.8 |
| 20260505002510 | 68 | 175 | 3.0 | 9.0 | 0.00 | 0.00 | 0.00 | 54 | 999.9 |
| 20260505002012 | 68 | 185 | 3.0 | 10.0 | 0.00 | 0.00 | 0.00 | 53 | 999.9 |
| 20260505001530 | 69 | 185 | 3.0 | 10.0 | 0.00 | 0.00 | 0.00 | 54 | 999.8 |
| 20260505001013 | 69 | 161 | 4.0 | 10.0 | 0.00 | 0.00 | 0.00 | 53 | 999.7 |
| 20260505000513 | 69 | 171 | 5.0 | 9.0 | 0.00 | 0.00 | 0.00 | 53 | 999.8 |
| 20260505000043 | 69 | 166 | 4.0 | 11.0 | 0.00 | 0.00 | 0.00 | 52 | 999.8 |
| 20260504235513 | 69 | 143 | 3.0 | 14.0 | 0.00 | 0.00 | 0.00 | 51 | 999.8 |
| 20260504235012 | 69 | 208 | 4.0 | 14.0 | 0.00 | 0.00 | 0.00 | 50 | 999.8 |
| 20260504234533 | 69 | 185 | 5.0 | 14.0 | 0.00 | 0.00 | 0.00 | 51 | 999.8 |
| 20260504234011 | 70 | 192 | 3.0 | 11.0 | 0.00 | 0.00 | 0.00 | 49 | 999.8 |
| 20260504233512 | 70 | 171 | 3.0 | 13.0 | 0.00 | 0.00 | 0.00 | 48 | 999.8 |
| 20260504233030 | 70 | 216 | 5.0 | 13.0 | 0.00 | 0.00 | 0.00 | 48 | 999.8 |
| 20260504232513 | 70 | 191 | 5.0 | 13.0 | 0.00 | 0.00 | 0.00 | 47 | 1000.0 |
| 20260504232010 | 70 | 259 | 7.0 | 13.0 | 0.00 | 0.00 | 0.00 | 47 | 1000.1 |
| 20260504231528 | 70 | 168 | 3.0 | 22.0 | 0.00 | 0.00 | 0.00 | 47 | 1000.2 |
| 20260504231017 | 71 | 172 | 4.0 | 22.0 | 0.00 | 0.00 | 0.00 | 47 | 1000.3 |
| 20260504230512 | 71 | 191 | 7.0 | 16.0 | 0.00 | 0.00 | 0.00 | 46 | 1000.3 |
| 20260504230028 | 71 | 185 | 5.0 | 19.0 | 0.00 | 0.00 | 0.00 | 46 | 1000.5 |
| 20260504225514 | 71 | 204 | 6.0 | 19.0 | 0.00 | 0.00 | 0.00 | 46 | 1000.5 |
| 20260504225010 | 71 | 168 | 6.0 | 19.0 | 0.00 | 0.00 | 0.00 | 46 | 1000.7 |
| 20260504224531 | 71 | 206 | 7.0 | 17.0 | 0.00 | 0.00 | 0.00 | 46 | 1000.7 |
| 20260504224013 | 71 | 165 | 8.0 | 16.0 | 0.00 | 0.00 | 0.00 | 45 | 1000.8 |
| 20260504223512 | 71 | 122 | 6.0 | 18.0 | 0.00 | 0.00 | 0.00 | 45 | 1000.8 |
| 20260504223031 | 71 | 168 | 6.0 | 18.0 | 0.00 | 0.00 | 0.00 | 45 | 1001.1 |
| 20260504222513 | 71 | 149 | 6.0 | 18.0 | 0.00 | 0.00 | 0.00 | 44 | 1001.0 |
| 20260504222011 | 71 | 225 | 3.0 | 13.0 | 0.00 | 0.00 | 0.00 | 45 | 1001.0 |
| 20260504221530 | 71 | 185 | 4.0 | 14.0 | 0.00 | 0.00 | 0.00 | 45 | 1000.9 |
| 20260504221013 | 71 | 154 | 5.0 | 14.0 | 0.00 | 0.00 | 0.00 | 45 | 1001.0 |
| 20260504220510 | 71 | 252 | 6.0 | 15.0 | 0.00 | 0.00 | 0.00 | 45 | 1001.0 |
| 20260504220043 | 71 | 233 | 7.0 | 15.0 | 0.00 | 0.00 | 0.00 | 45 | 1001.1 |
| 20260504215511 | 71 | 289 | 3.0 | 10.0 | 0.00 | 0.00 | 0.00 | 46 | 1001.1 |
| 20260504215013 | 71 | 160 | 3.0 | 16.0 | 0.00 | 0.00 | 0.00 | 45 | 1001.1 |
| 20260504214535 | 71 | 185 | 6.0 | 16.0 | 0.00 | 0.00 | 0.00 | 45 | 1001.1 |
| 20260504214012 | 70 | 159 | 5.0 | 13.0 | 0.00 | 0.00 | 0.00 | 45 | 1001.1 |
| 20260504213512 | 70 | 206 | 5.0 | 16.0 | 0.00 | 0.00 | 0.00 | 45 | 1001.1 |
| 20260504213045 | 70 | 198 | 8.0 | 18.0 | 0.00 | 0.00 | 0.00 | 45 | 1001.1 |
| 20260504212511 | 71 | 235 | 6.0 | 18.0 | 0.00 | 0.00 | 0.00 | 44 | 1001.1 |
| 20260504212017 | 71 | 166 | 5.0 | 18.0 | 0.00 | 0.00 | 0.00 | 45 | 1001.1 |
| 20260504211537 | 71 | 167 | 4.0 | 12.0 | 0.00 | 0.00 | 0.00 | 46 | 1001.1 |
| 20260504211013 | 71 | 289 | 4.0 | 16.0 | 0.00 | 0.00 | 0.00 | 45 | 1001.2 |
| 20260504210512 | 71 | 235 | 5.0 | 18.0 | 0.00 | 0.00 | 0.00 | 44 | 1001.2 |
| 20260504210029 | 72 | 281 | 7.0 | 18.0 | 0.00 | 0.00 | 0.00 | 43 | 1001.0 |
| 20260504205511 | 72 | 220 | 4.0 | 15.0 | 0.00 | 0.00 | 0.00 | 43 | 1000.9 |
| 20260504205010 | 72 | 191 | 4.0 | 15.0 | 0.00 | 0.00 | 0.00 | 44 | 1000.9 |
| 20260504204537 | 72 | 232 | 6.0 | 17.0 | 0.00 | 0.00 | 0.00 | 43 | 1001.1 |
| 20260504204012 | 73 | 202 | 8.0 | 17.0 | 0.00 | 0.00 | 0.00 | 42 | 1001.1 |
| 20260504203512 | 73 | 233 | 5.0 | 17.0 | 0.00 | 0.00 | 0.00 | 42 | 1001.1 |
| 20260504203029 | 72 | 0 | 3.0 | 21.0 | 0.00 | 0.00 | 0.00 | 44 | 1001.2 |
| 20260504202513 | 72 | 308 | 7.0 | 21.0 | 0.00 | 0.00 | 0.00 | 43 | 1001.1 |
| 20260504202010 | 72 | 197 | 7.0 | 13.0 | 0.00 | 0.00 | 0.00 | 43 | 1001.3 |
| 20260504201529 | 72 | 195 | 4.0 | 17.0 | 0.00 | 0.00 | 0.00 | 44 | 1001.2 |
| 20260504201012 | 73 | 228 | 7.0 | 17.0 | 0.00 | 0.00 | 0.00 | 42 | 1001.4 |
| 20260504200512 | 72 | 218 | 6.0 | 14.0 | 0.00 | 0.00 | 0.00 | 42 | 1001.3 |
| 20260504200033 | 72 | 200 | 4.0 | 13.0 | 0.00 | 0.00 | 0.00 | 42 | 1001.4 |
| 20260504195511 | 73 | 158 | 7.0 | 19.0 | 0.00 | 0.00 | 0.00 | 41 | 1001.3 |
| 20260504195011 | 73 | 241 | 2.0 | 19.0 | 0.00 | 0.00 | 0.00 | 42 | 1001.3 |
| 20260504194532 | 73 | 198 | 4.0 | 19.0 | 0.00 | 0.00 | 0.00 | 44 | 1001.4 |
| 20260504194014 | 73 | 180 | 3.0 | 11.0 | 0.00 | 0.00 | 0.00 | 45 | 1001.3 |
| 20260504193512 | 73 | 193 | 3.0 | 12.0 | 0.00 | 0.00 | 0.00 | 41 | 1001.5 |
| 20260504193031 | 73 | 180 | 4.0 | 14.0 | 0.00 | 0.00 | 0.00 | 42 | 1001.4 |
| 20260504192510 | 73 | 229 | 5.0 | 14.0 | 0.00 | 0.00 | 0.00 | 38 | 1001.5 |